Alcoa, TN

10:53 PM EST on February 19, 2017 (GMT -0500)
McGhee Tyson

Weather History for KTYS - January, 2014

Change the Weather History Date:

Friday, January 3, 2014

  Actual Average Record
Temperature  
Mean Temperature 23 °F 38 °F  
Max Temperature 29 °F 47 °F 74 °F (2000)
Min Temperature 16 °F 29 °F -14 °F (1877)
Degree Days  
Heating Degree Days 42 27  
Month to date heating degree days 105 81  
Since 1 July heating degree days 1464 1514  
Cooling Degree Days 0 0  
Month to date cooling degree days 0 0  
Year to date cooling degree days 0 0  
Moisture  
Dew Point 8 °F    
Average Humidity 52    
Maximum Humidity 62    
Minimum Humidity 42    
Precipitation  
Precipitation T in 0.12 in 1.88 in (1982)
Month to date precipitation 0.62 0.38  
Year to date precipitation 0.62 0.38  
Snow  
Snow 0.00 in 0.10 in - ()
Month to date snowfall T 0.2  
Since 1 July snowfall 0.8 1.0  
Snow Depth 0.00 in    
Sea Level Pressure  
Sea Level Pressure 30.39 in    
Wind  
Wind Speed 7 mph (NNE)    
Max Wind Speed 20 mph    
Max Gust Speed 26 mph    
Visibility 10 miles    
Events Snow    
T = Trace of Precipitation, MM = Missing Value Source: NWS Daily Summary

Daily Weather History Graph

Daily Weather History Graph

Search for Another Location

Airport or City:

Trip Planner

Search our weather history database for the weather conditions in past years. The results will help you decide how hot, cold, wet, or windy it might be!

Date:

Astronomy

Jan. 03, 2014 Rise Set
Actual Time 7:46 AM EST 5:34 PM EST
Civil Twilight 7:18 AM EST 6:03 PM EST
Nautical Twilight 6:46 AM EST 6:35 PM EST
Astronomical Twilight 6:15 AM EST 7:06 PM EST
Moon 9:17 AM EST (1/3) 8:36 PM EST (1/3)
Length of Visible Light 10h 45m
Length of Day
9h 48m
Waxing Crescent, 8% of the Moon is Illuminated
Jan 3
Waxing Crescent
Jan 7
First Quarter
Jan 15
Full
Jan 24
Last Quarter
Jan 30
New

Hourly Weather History & Observations

Time (EST) Temp. Windchill Dew Point Humidity Pressure Visibility Wind Dir Wind Speed Gust Speed Precip Events Conditions
12:53 AM 21.9 °F 9.8 °F 10.0 °F 60% 30.22 in 9.0 mi NNW 12.7 mph 26.5 mph 0.00 in Snow Light Snow
1:53 AM 19.9 °F 11.1 °F 9.0 °F 62% 30.25 in 9.0 mi North 6.9 mph - 0.00 in Snow Light Snow
2:53 AM 19.0 °F 4.5 °F 6.1 °F 57% 30.28 in 9.0 mi North 16.1 mph 26.5 mph 0.00 in   Scattered Clouds
3:53 AM 18.0 °F 7.7 °F 6.1 °F 60% 30.32 in 10.0 mi North 8.1 mph - N/A   Scattered Clouds
4:53 AM 17.1 °F 5.0 °F 7.0 °F 65% 30.33 in 10.0 mi NNE 10.4 mph - N/A   Mostly Cloudy
5:53 AM 17.1 °F 5.0 °F 6.1 °F 62% 30.37 in 10.0 mi North 10.4 mph - N/A   Scattered Clouds
6:53 AM 17.1 °F 6.6 °F 7.0 °F 65% 30.39 in 10.0 mi North 8.1 mph - 0.00 in Snow Light Snow
7:53 AM 17.1 °F 6.6 °F 7.0 °F 65% 30.40 in 9.0 mi North 8.1 mph - 0.00 in Snow Light Snow
8:53 AM 18.0 °F 8.7 °F 8.1 °F 65% 30.43 in 9.0 mi North 6.9 mph - 0.00 in Snow Light Snow
9:43 AM 19.4 °F 7.9 °F 8.6 °F 63% 30.42 in 10.0 mi NNW 10.4 mph - 0.00 in   Scattered Clouds
9:53 AM 19.9 °F 8.6 °F 8.1 °F 60% 30.46 in 10.0 mi North 10.4 mph - 0.00 in   Scattered Clouds
10:53 AM 21.9 °F 13.4 °F 9.0 °F 58% 30.48 in 10.0 mi North 6.9 mph - N/A   Partly Cloudy
11:53 AM 23.0 °F 13.1 °F 8.1 °F 53% 30.47 in 10.0 mi NE 9.2 mph - N/A   Partly Cloudy
12:53 PM 25.0 °F 15.5 °F 10.0 °F 53% 30.45 in 10.0 mi NE 9.2 mph - N/A   Partly Cloudy
1:53 PM 26.1 °F 19.4 °F 8.1 °F 47% 30.44 in 10.0 mi Variable 5.8 mph - N/A   Clear
2:53 PM 27.0 °F - 7.0 °F 43% 30.43 in 10.0 mi Calm Calm - N/A   Clear
3:53 PM 28.9 °F 23.9 °F 9.0 °F 43% 30.42 in 10.0 mi NNE 4.6 mph - N/A   Clear
4:53 PM 28.0 °F 19.3 °F 8.1 °F 43% 30.40 in 10.0 mi NE 9.2 mph - N/A   Clear
5:53 PM 25.0 °F 19.3 °F 8.1 °F 49% 30.40 in 10.0 mi NNE 4.6 mph - N/A   Clear
6:53 PM 24.1 °F 17.0 °F 8.1 °F 51% 30.41 in 10.0 mi North 5.8 mph - N/A   Clear
7:53 PM 24.1 °F 18.2 °F 8.1 °F 51% 30.42 in 10.0 mi NE 4.6 mph - N/A   Clear
8:53 PM 21.9 °F 15.7 °F 10.0 °F 60% 30.41 in 10.0 mi NE 4.6 mph - N/A   Clear
9:53 PM 23.0 °F - 10.0 °F 58% 30.39 in 10.0 mi Calm Calm - N/A   Clear
10:53 PM 21.9 °F 17.2 °F 9.0 °F 58% 30.38 in 10.0 mi NNE 3.5 mph - N/A   Clear
11:53 PM 19.9 °F - 10.9 °F 68% 30.37 in 10.0 mi Calm Calm - N/A   Clear